Regional Weather Roundup
Issued by NWS Grand Forks, ND

Home | Current Version | Previous Version | Graphics & Text | Print | Product List | Glossary On
Versions: 1 2 3 4 5 6 7 8 9 10 11 12 13 14 15 16 17 18 19 20 21 22 23 24 25 26 27 28 29 30 31 32 33 34 35 36 37 38 39 40 41 42 43 44 45 46 47 48 49 50
652
ASUS43 KFGF 201631
RWRFGF
PRAIRIE TO PINES  WEATHER ROUNDUP
NATIONAL WEATHER SERVICE EASTERN NORTH DAKOTA/GRAND FORKS ND
1000 AM CST MON FEB 20 2017

 **SATELLITE DATA USED TO AUGMENT SKY COVER AT AUTOMATED STATIONS**
 *****  WEATHER ACROSS EASTERN NORTH DAKOTA  *****

CITY           SKY/WX    TMP DP  RH WIND       PRES   REMARKS
GRAND FORKS    FOG       40  37  89 SW8       29.60S VSB 1/4
GRAND FRKS AFB FOG       39  39 100 W8        29.60S VSB 1/2
DEVILS LAKE    LGT RAIN  34  34 100 W15       29.65R FOG     WCI  24
FARGO          LGT RAIN  50  49  96 SE13      29.62S FOG
WAHPETON ARPT  CLOUDY    46  45  93 SE6       29.62F VSB 3/4
$$

 ***** WEATHER ACROSS CENTRAL AND WESTERN NORTH DAKOTA  *****

CITY           SKY/WX    TMP DP  RH WIND       PRES   REMARKS
BISMARCK       CLOUDY    38  35  89 NW7       29.71F FOG
MINOT          CLOUDY    36  33  89 W12       29.70R FOG
JAMESTOWN      LGT RAIN  35  33  92 NW10      29.65S
MINOT AFB      CLOUDY    33  32  96 NW8       29.67F FOG
GARRISON         N/A     34  32  92 W13       29.71R WCI  25
WILLISTON      PTSUNNY   36  32  85 SE6       29.72F
DICKINSON      PTSUNNY   43  35  73 W16       29.71S
HETTINGER      FAIR      44  35  70 W13       29.76R
$$

 *****  OTHER AIRPORT OBSERVATIONS IN OUR AREA  *****

CITY           SKY/WX    TMP DP  RH WIND       PRES   REMARKS
WALHALLA       NOT AVBL
GRAFTON AIRPOR FOG       34  34 100 CALM      29.62S VSB<1/4
VALLEY CITY AR MIX PCPN  36  36 100 NW18      29.64R
CANDO          NOT AVBL
CAVALIER APRT  CLOUDY    36  36 100 NW6       29.61R FOG
GWINNER        PTSUNNY   52  50  93 W7        29.60R
SHEYENNE NWR     N/A     47  47 100 SE8       29.95S
ROLLA          FAIR      34  34 100 CALM      29.64R
 ***** THE ABOVE OBSERVATIONS ARE NON NWS ARE NOT QUALITY
       CONTROLLED AND MAY MIS-REPORT RAIN FOR SNOW...
$$

  *****  WEATHER ACROSS NORTHERN MINNESOTA  *****

CITY           SKY/WX    TMP DP  RH WIND       PRES   REMARKS
FLAG ISLAND    CLOUDY    37  36  93 SE13      29.66S
WARROAD        DRIZZLE   39  36  87 SE5       29.63F
ROSEAU         DRIZZLE   39  36  87 SE10      29.62F
HALLOCK        DRZL/FOG  36  36 100 S6        29.60S VSB<1/4
THF RVR FALLS  LGT RAIN  39  39 100 SE13      29.63F VSB 1/4
BAUDETTE       CLOUDY    39  37  92 SE7       29.66F
WASKISH        CLOUDY    46  43  87 S8        29.68F
CROOKSTON      LGT RAIN  43  43 100 S10       29.60F VSB 3/4
STEPHEN NDAWN    N/A     39  39 100 SW6         N/A
GREENBUSH NDAW   N/A     37  37 100 S9          N/A
$$
  *****  WEATHER ACROSS CENTRAL AND WEST MINNESOTA  *****

CITY           SKY/WX    TMP DP  RH WIND       PRES   REMARKS
FOSSTON        RAIN      43  41  93 SE10      29.65F VSB 3/4
BEMIDJI        CLOUDY    40  38  91 SE8       29.68S
PARK RAPIDS    CLOUDY    43  41  93 SE8       29.68F FOG
ELBOW LAKE     RAIN      49  49 100 S12       29.65S
WADENA         DRIZZLE   45  45 100 SE8       29.68F
DETROIT LAKES  LGT RAIN  46  45  93 S7        29.66F
MOORHEAD       LGT RAIN  48  46  93 S10       29.63F
FERGUS FALLS   LGT RAIN  48  48 100 S5        29.66F
MORRIS MN      RAIN      50  48  93 S12       29.65F
STAPLES        CLOUDY    46  45  93 SE8       29.70F
$$
  *****  WEATHER ELSEWHERE ACROSS MINNESOTA  *****

CITY           SKY/WX    TMP DP  RH WIND       PRES   REMARKS
DULUTH         PTSUNNY   41  35  79 SE13      29.84F
INTRNTL FALLS  CLOUDY    43  35  73 SE10      29.73F
ELY            PTSUNNY   43  34  70 SE14      29.82F
CLOQUET        CLOUDY    39  34  81 E9        29.82F
WHEATON        LGT RAIN  48  46  93 E13       29.62F
BRAINERD       CLOUDY    49  44  83 SE10      29.73F
HIBBING        PTSUNNY   41  36  82 SE12      29.79F
ALEXANDRIA     CLOUDY    52  50  93 SE12      29.68F FOG
SAINT CLOUD    LGT RAIN  48  47  96 SE10      29.74S FOG
MINNEAPOLIS    CLOUDY    50  44  80 SE9       29.79F
$$

  *****  WEATHER ACROSS SOUTH DAKOTA  *****

CITY           SKY/WX    TMP DP  RH WIND       PRES   REMARKS
SIOUX FALLS    CLOUDY    56  55  97 S13       29.66F FOG
BROOKINGS      NOT AVBL
WATERTOWN      FOG       50  50 100 S13       29.62R VSB 1/4
HURON          PTSUNNY   53  52  96 S10       29.63R
SISSETON         N/A     50  50 100 SE10      29.57F
ABERDEEN       CLOUDY    47  44  90 NW14      29.61S FOG
MITCHELL       PTSUNNY   54  52  93 SW6       29.64R FOG
PIERRE         LGT RAIN  42  40  92 NW21      29.72R FOG
MOBRIDGE       LGT RAIN  39  35  86 NW12      29.68R FOG
RAPID CITY     FAIR      52  33  48 NW10      29.82R
$$

  *****  SOME WEATHER IN NEARBY STATES *****

CITY           SKY/WX    TMP DP  RH WIND       PRES   REMARKS
GLASGOW MT     FAIR      37  31  78 W8        29.74S
GREAT FALLS MT FAIR      39  22  50 S13       29.67F
CHEYENNE WY    FAIR      43  17  35 NW22G30   29.97R
SCOTTSBLUFF NE FAIR      44  22  41 W14       29.94R
OMAHA NE       LGT RAIN  58  55  90 S13       29.74F FOG
DES MOINES IA  CLOUDY    61  55  81 S13       29.82F
DAVENPORT IA   PTSUNNY   54  50  86 SE21      29.98F
CHICAGO IL     CLOUDY    57  47  69 S13       30.11F
EAU CLAIRE WI  FAIR      47  40  76 SE10      29.91R
LA CROSSE WI   FAIR      56  48  74 SE9       29.92F
$$

  *****  SOME NATIONAL WEATHER *****

CITY           SKY/WX    TMP DP  RH WIND       PRES   REMARKS
LA GUARDIA NY  FAIR      51  28  41 N12       30.19S
RALEIGH NC     FAIR      65  40  39 E8        30.25R
ATLANTA GA     PTSUNNY   64  46  52 E7        30.21F
NEW ORLEANS LA PTSUNNY   75  67  76 SE12      30.08R
OKLAHOMA CITY  CLOUDY    56  54  93 S15       29.90R
ALBUQUERQUE NM FAIR      46  33  60 W3        30.22R
SALT LAKE CITY PTSUNNY   48  33  56 S20G26    30.00S
LOS ANGELES CA CLOUDY    53  53 100 E9        30.24R FOG
BOISE ID       PTSUNNY   49  36  61 SE20G26   29.71S
SEATTLE WA     LGT RAIN  42  40  92 N13       29.47F
$$

*** WEATHER ACROSS MANITOBA...SASKATCHEWAN AND ONTARIO ***
                ***ONTARIO***

CITY           SKY/WX    TMP DP  RH WIND       PRES   REMARKS
GERALDTON      PTSUNNY   36  27  69 S13G21    30.10F
THUNDER BAY    CLOUDY    37  32  81 E13       30.04F
SIOUX LOOKOUT  LGT RAIN  37  34  87 SE12G18   29.78F
TORONTO        MOSUNNY   37  23  56 N6        30.38R
BIG TROUT LK   FRZ RAIN  30  25  80 SE14G21   29.85F WCI  20
PICKLE LAKE    LGT RAIN  34  30  86 SE13      29.84F WCI  25
DRYDEN         CLOUDY    39  37  93 SE13      29.74F
KENORA         LGT RAIN  41  39  93 S12G20    29.68R
$$
                *** MANITOBA***

CITY           SKY/WX    TMP DP  RH WIND       PRES   REMARKS
BRANDON        CLOUDY    34  30  86 W18       29.65R WCI  23
DAUPHIN        CLOUDY    32  30  93 W17       29.64R WCI  21
ISLAND LAKE    FRZ RAIN  32  30  93 SE8       29.67  WCI  25
PILOT MOUND      N/A     34  32  93 NW10        N/A
THE PAS        CLOUDY    25  21  86 N3        29.63F
THOMPSON       FRZ RAIN  23  21  93 NE12G20   29.68F WCI  12
WINNIPEG       CLOUDY    34  34 100 W5        29.60R FOG
LYNN LAKE      LGT SNOW  19  18  93 E9        29.67S VSB 5/8 WCI   9
CHURCHILL      CLOUDY    12  10  92 E16       30.04F WCI  -4
GILLAM         FLURRIES  21  19  93 E10G20    29.82F WCI  10
$$
                ***SASKATCHEWAN***

CITY           SKY/WX    TMP DP  RH WIND       PRES   REMARKS
ESTEVAN        PTSUNNY   32  32 100 SW7       29.69F
KINDERSLEY     CLOUDY    32  28  86 W9        29.62S WCI  24
LLOYDMINSTER   CLOUDY    32  32 100 W7        29.58R
PRINCE ALBERT  CLOUDY    34  32  93 W6        29.58S FOG
REGINA         PTSUNNY   30  30 100 S3        29.66R
YORKTON        CLOUDY    30  30 100 SW7       29.63S WCI  23
N. BATTLEFORD  CLOUDY    34  34 100 W7        29.61S
LA RONGE       FLURRIES  25  23  93 E5        29.58F WCI  19
SASKATOON      PTSUNNY   34  32  93 W6        29.62F
SWIFT CURRENT  SUNNY     32  28  86 SW10      29.62S WCI  24
$$
NOTE: THESE ARE AUTOMATED STATIONS WITH LIMITED QUALITY CONTROL
      "FAIR" INDICATES FEW OR NO CLOUDS BELOW 12,000 FEET WITH NO
      SIGNIFICANT WEATHER AND/OR OBSTRUCTIONS TO VISIBILITY.
      SKY/WX - SKY CONDITION AND SIGNIFICANT WEATHER.
      TMP - AIR TEMPERATURE.    DP   - DEWPOINT TEMPERATURE.
      RH  - RELATIVE HUMIDITY.  PRES - PRESSURE.
      HX  - HEAT INDEX.         WCI  - WIND CHILL INDEX.
$




USA.gov is the U.S. government's official web portal to all federal, state and local government web resources and services.